• In Deutschland
  • Länderverzeichnis
  • Für 7 Tage
  • Wassertemperatur
  • Satellitenkarten
  • Wetterkarte
  • Widgets
  • user-avatar
    Anmelden

    Stündliche Wetter Stepanakert

    Heute, 22 Juli, Samstag

    Zeit Temperatur Niederschläge Wind Luftdruck Luftfeuchtigkeit
    00:00 +24°C° 0 mm 2 m/S 692 mmHg 38%
    01:00 +24°C° 0 mm 2 m/S 692 mmHg 38%
    02:00 +23°C° 0 mm 2 m/S 692 mmHg 37%
    03:00 +23°C° 0 mm 2 m/S 692 mmHg 37%
    04:00 +24°C° 0 mm 2 m/S 692 mmHg 37%
    05:00 +24°C° 0 mm 2 m/S 692 mmHg 38%
    06:00 +24°C° 0 mm 2 m/S 693 mmHg 39%
    07:00 +26°C° 0 mm 2 m/S 693 mmHg 35%
    08:00 +29°C° 0 mm 3 m/S 693 mmHg 32%
    09:00 +31°C° 0 mm 3 m/S 694 mmHg 29%
    10:00 +33°C° 0 mm 3 m/S 694 mmHg 28%
    11:00 +34°C° 0 mm 3 m/S 694 mmHg 26%
    12:00 +35°C° 0 mm 4 m/S 693 mmHg 25%
    13:00 +36°C° 0 mm 4 m/S 693 mmHg 25%
    14:00 +36°C° 0 mm 4 m/S 693 mmHg 25%
    15:00 +37°C° 0 mm 4 m/S 692 mmHg 25%
    16:00 +36°C° 0 mm 4 m/S 692 mmHg 27%
    17:00 +35°C° 0 mm 4 m/S 692 mmHg 29%
    18:00 +34°C° 0 mm 4 m/S 692 mmHg 32%
    19:00 +31°C° 0 mm 3 m/S 691 mmHg 36%
    20:00 +28°C° 0 mm 2 m/S 691 mmHg 40%
    21:00 +26°C° 0 mm 2 m/S 691 mmHg 45%
    22:00 +26°C° 0 mm 2 m/S 691 mmHg 45%
    23:00 +25°C° 0 mm 2 m/S 691 mmHg 46%

    Morgen, 23 Juli, Sonntag

    Zeit Temperatur Niederschläge Wind Luftdruck Luftfeuchtigkeit
    00:00 +25°C° 0 mm 2 m/S 691 mmHg 47%
    01:00 +24°C° 0 mm 2 m/S 690 mmHg 46%
    02:00 +24°C° 0 mm 2 m/S 690 mmHg 46%
    03:00 +24°C° 0 mm 2 m/S 690 mmHg 46%
    04:00 +24°C° 0 mm 2 m/S 690 mmHg 45%
    05:00 +25°C° 0 mm 2 m/S 690 mmHg 45%
    06:00 +25°C° 0 mm 2 m/S 691 mmHg 44%
    07:00 +27°C° 0 mm 2 m/S 691 mmHg 39%
    08:00 +29°C° 0 mm 2 m/S 691 mmHg 33%
    09:00 +31°C° 0 mm 2 m/S 691 mmHg 28%
    10:00 +33°C° 0 mm 3 m/S 690 mmHg 26%
    11:00 +35°C° 0 mm 3 m/S 690 mmHg 24%
    12:00 +36°C° 0 mm 3 m/S 690 mmHg 22%
    13:00 +36°C° 0 mm 3 m/S 689 mmHg 22%
    14:00 +37°C° 0 mm 3 m/S 689 mmHg 22%
    15:00 +37°C° 0 mm 3 m/S 689 mmHg 21%
    16:00 +36°C° 0 mm 3 m/S 689 mmHg 23%
    17:00 +35°C° 0 mm 2 m/S 688 mmHg 25%
    18:00 +35°C° 0 mm 2 m/S 688 mmHg 27%
    19:00 +31°C° 0 mm 2 m/S 688 mmHg 30%
    20:00 +29°C° 0 mm 2 m/S 689 mmHg 32%
    21:00 +27°C° 0 mm 2 m/S 689 mmHg 35%
    22:00 +26°C° 0 mm 2 m/S 689 mmHg 37%
    23:00 +25°C° 0 mm 2 m/S 689 mmHg 39%

    übermorgen, 24 Juli, Montag

    Zeit Temperatur Niederschläge Wind Luftdruck Luftfeuchtigkeit
    00:00 +25°C° 0 mm 2 m/S 689 mmHg 41%
    01:00 +24°C° 0 mm 2 m/S 689 mmHg 42%
    02:00 +24°C° 0 mm 2 m/S 689 mmHg 42%
    03:00 +23°C° 0 mm 2 m/S 689 mmHg 43%
    04:00 +24°C° 0 mm 2 m/S 690 mmHg 43%
    05:00 +24°C° 0 mm 2 m/S 690 mmHg 43%
    06:00 +24°C° 0 mm 2 m/S 690 mmHg 43%
    07:00 +26°C° 0 mm 2 m/S 690 mmHg 41%
    08:00 +28°C° 0 mm 3 m/S 691 mmHg 40%
    09:00 +30°C° 0 mm 4 m/S 691 mmHg 38%
    10:00 +32°C° 0 mm 4 m/S 691 mmHg 37%
    11:00 +33°C° 0 mm 5 m/S 690 mmHg 35%
    12:00 +34°C° 0 mm 5 m/S 690 mmHg 34%
    13:00 +34°C° 0 mm 5 m/S 690 mmHg 33%
    14:00 +35°C° 0 mm 5 m/S 689 mmHg 33%
    15:00 +35°C° 0 mm 5 m/S 689 mmHg 32%
    16:00 +34°C° 0 mm 5 m/S 689 mmHg 35%
    17:00 +33°C° 0 mm 5 m/S 689 mmHg 38%
    18:00 +32°C° 0 mm 5 m/S 688 mmHg 41%
    19:00 +29°C° 0 mm 4 m/S 688 mmHg 47%
    20:00 +27°C° 0 mm 3 m/S 689 mmHg 54%
    21:00 +25°C° 0 mm 2 m/S 689 mmHg 60%
    22:00 +24°C° 0 mm 2 m/S 689 mmHg 61%
    23:00 +24°C° 0 mm 2 m/S 689 mmHg 62%

    25 Juli, Dienstag

    Zeit Temperatur Niederschläge Wind Luftdruck Luftfeuchtigkeit
    00:00 +23°C° 0 mm 2 m/S 689 mmHg 63%
    01:00 +23°C° 0 mm 2 m/S 689 mmHg 62%
    02:00 +23°C° 0 mm 2 m/S 688 mmHg 61%
    03:00 +22°C° 0 mm 1 m/S 688 mmHg 60%
    04:00 +23°C° 0 mm 1 m/S 689 mmHg 58%
    05:00 +23°C° 0 mm 1 m/S 689 mmHg 56%
    06:00 +24°C° 0 mm 1 m/S 689 mmHg 54%
    07:00 +26°C° 0 mm 2 m/S 689 mmHg 48%
    08:00 +28°C° 0 mm 2 m/S 689 mmHg 43%
    09:00 +29°C° 0 mm 2 m/S 689 mmHg 38%
    10:00 +31°C° 0 mm 2 m/S 689 mmHg 35%
    11:00 +33°C° 0 mm 3 m/S 689 mmHg 33%
    12:00 +34°C° 0 mm 3 m/S 688 mmHg 30%
    13:00 +35°C° 0 mm 3 m/S 688 mmHg 30%
    14:00 +35°C° 0 mm 3 m/S 688 mmHg 29%
    15:00 +36°C° 0 mm 3 m/S 687 mmHg 29%
    16:00 +35°C° 0 mm 3 m/S 687 mmHg 31%
    17:00 +35°C° 0 mm 3 m/S 687 mmHg 33%
    18:00 +34°C° 0 mm 2 m/S 687 mmHg 35%
    19:00 +31°C° 0 mm 2 m/S 687 mmHg 40%
    20:00 +29°C° 0 mm 2 m/S 688 mmHg 45%
    21:00 +27°C° 0 mm 2 m/S 688 mmHg 50%
    22:00 +26°C° 0 mm 2 m/S 688 mmHg 52%
    23:00 +25°C° 0 mm 2 m/S 688 mmHg 53%

    26 Juli, Mittwoch

    Zeit Temperatur Niederschläge Wind Luftdruck Luftfeuchtigkeit
    00:00 +25°C° 0 mm 2 m/S 688 mmHg 54%
    01:00 +25°C° 0 mm 2 m/S 688 mmHg 54%
    02:00 +24°C° 0 mm 2 m/S 688 mmHg 55%
    03:00 +24°C° 0 mm 1 m/S 688 mmHg 55%
    04:00 +24°C° 0 mm 1 m/S 688 mmHg 54%
    05:00 +25°C° 0 mm 1 m/S 688 mmHg 53%
    06:00 +25°C° 0 mm 1 m/S 688 mmHg 51%
    07:00 +27°C° 0 mm 2 m/S 689 mmHg 46%
    08:00 +29°C° 0 mm 2 m/S 689 mmHg 40%
    09:00 +31°C° 0 mm 2 m/S 689 mmHg 35%
    10:00 +34°C° 0 mm 2 m/S 689 mmHg 32%
    11:00 +35°C° 0 mm 3 m/S 689 mmHg 30%
    12:00 +36°C° 0 mm 3 m/S 689 mmHg 27%
    13:00 +36°C° 0 mm 3 m/S 689 mmHg 27%
    14:00 +37°C° 0 mm 3 m/S 689 mmHg 26%
    15:00 +37°C° 0 mm 3 m/S 688 mmHg 26%
    16:00 +37°C° 0,1 mm 2 m/S 689 mmHg 28%
    17:00 +36°C° 0,1 mm 2 m/S 689 mmHg 30%
    18:00 +35°C° 0,1 mm 2 m/S 689 mmHg 32%
    19:00 +32°C° 0 mm 2 m/S 689 mmHg 37%
    20:00 +30°C° 0 mm 2 m/S 689 mmHg 41%
    21:00 +28°C° 0 mm 2 m/S 689 mmHg 46%
    22:00 +27°C° 0 mm 2 m/S 690 mmHg 47%
    23:00 +27°C° 0 mm 2 m/S 690 mmHg 49%

    27 Juli, Donnerstag

    Zeit Temperatur Niederschläge Wind Luftdruck Luftfeuchtigkeit
    00:00 +26°C° 0 mm 2 m/S 690 mmHg 50%
    01:00 +26°C° 0 mm 2 m/S 690 mmHg 50%
    02:00 +25°C° 0 mm 2 m/S 690 mmHg 50%
    03:00 +25°C° 0 mm 2 m/S 690 mmHg 50%
    04:00 +25°C° 0 mm 2 m/S 690 mmHg 50%
    05:00 +26°C° 0 mm 2 m/S 691 mmHg 49%
    06:00 +26°C° 0 mm 2 m/S 691 mmHg 48%
    07:00 +28°C° 0 mm 2 m/S 691 mmHg 43%
    08:00 +30°C° 0 mm 2 m/S 692 mmHg 39%
    09:00 +32°C° 0 mm 2 m/S 692 mmHg 34%
    10:00 +34°C° 0 mm 2 m/S 692 mmHg 32%
    11:00 +36°C° 0 mm 3 m/S 692 mmHg 29%
    12:00 +37°C° 0 mm 3 m/S 692 mmHg 27%
    13:00 +37°C° 0 mm 3 m/S 691 mmHg 27%
    14:00 +38°C° 0 mm 3 m/S 691 mmHg 26%
    15:00 +38°C° 0 mm 3 m/S 691 mmHg 25%
    16:00 +37°C° 0 mm 3 m/S 691 mmHg 27%
    17:00 +37°C° 0 mm 3 m/S 691 mmHg 29%
    18:00 +36°C° 0 mm 3 m/S 691 mmHg 30%
    19:00 +34°C° 0 mm 3 m/S 691 mmHg 34%
    20:00 +30°C° 0 mm 3 m/S 691 mmHg 38%
    21:00 +28°C° 0 mm 2 m/S 691 mmHg 42%
    22:00 +27°C° 0 mm 2 m/S 691 mmHg 43%
    23:00 +27°C° 0 mm 2 m/S 691 mmHg 44%
    Mehr zeigen